Chicago Midway, IL

7:17 AM CST on December 08, 2019 (GMT -0600)
Chicago-Midway

Weather History for KMDW - November, 2019

Change the Weather History Date:

Wednesday, November 13, 2019

  Actual Average Record
Temperature  
Mean Temperature 21 °F 43 °F  
Max Temperature 28 °F 50 °F 74 °F (1989)
Min Temperature 13 °F 36 °F 7 °F (1986)
Degree Days  
Heating Degree Days 44 22  
Month to date heating degree days 407 252  
Since 1 July heating degree days 798 683  
Cooling Degree Days 0 0  
Month to date cooling degree days 0 0  
Year to date cooling degree days 1131 1045  
Moisture  
Dew Point 7 °F    
Average Humidity 56    
Maximum Humidity 75    
Minimum Humidity 32    
Precipitation  
Precipitation T in 0.12 in 1.09 in (1951)
Month to date precipitation 0.15 1.49  
Year to date precipitation 42.97 34.59  
Snow  
Snow 0.00 in - - ()
Snow Depth 2.00 in    
Sea Level Pressure  
Sea Level Pressure 30.25 in    
Wind  
Wind Speed 13 mph (SSW)    
Max Wind Speed 22 mph    
Max Gust Speed 41 mph    
Visibility 10 miles    
Events Snow    
T = Trace of Precipitation, MM = Missing Value Source: NWS Daily Summary

Daily Weather History Graph

Daily Weather History Graph

Search for Another Location

Airport or City:

Astronomy

Nov. 13, 2019 Rise Set
Actual Time 6:37 AM CST 4:32 PM CST
Civil Twilight 6:07 AM CST 5:02 PM CST
Nautical Twilight 5:34 AM CST 5:35 PM CST
Astronomical Twilight 5:01 AM CST 6:08 PM CST
Moon 5:35 PM CST (11/13) 7:30 AM CST (11/13)
Length of Visible Light 10h 54m
Length of Day
9h 54m
Full, 99% of the Moon is Illuminated
Nov 13
Full
Nov 19
Last Quarter
Nov 26
New
Dec 4
First Quarter
Dec 11
Full

Hourly Weather History & Observations

Time (CST) Temp. Windchill Dew Point Humidity Pressure Visibility Wind Dir Wind Speed Gust Speed Precip Events Conditions
12:53 AM 12.9 °F 1.6 °F 1.9 °F 62% 30.43 in 10.0 mi SSW 8.1 mph - N/A   Overcast
1:53 AM 12.9 °F 1.6 °F 1.9 °F 62% 30.44 in 10.0 mi South 8.1 mph - N/A   Overcast
2:53 AM 14.0 °F 3.9 °F 1.9 °F 59% 30.41 in 10.0 mi SSW 6.9 mph - N/A   Mostly Cloudy
3:53 AM 14.0 °F 2.0 °F 3.0 °F 62% 30.38 in 10.0 mi South 9.2 mph - N/A   Overcast
4:53 AM 14.0 °F 1.2 °F 3.0 °F 62% 30.34 in 10.0 mi South 10.4 mph - N/A   Overcast
5:53 AM 14.0 °F -1.4 °F 1.0 °F 56% 30.32 in 10.0 mi South 15.0 mph 28.8 mph N/A   Overcast
6:53 AM 15.1 °F 1.1 °F 1.9 °F 56% 30.30 in 10.0 mi South 12.7 mph 26.5 mph N/A   Mostly Cloudy
7:53 AM 15.1 °F -0.1 °F 1.9 °F 56% 30.32 in 10.0 mi South 15.0 mph 24.2 mph N/A   Overcast
8:53 AM 16.0 °F 0.6 °F 1.9 °F 54% 30.32 in 10.0 mi SSW 16.1 mph 26.5 mph N/A   Overcast
9:53 AM 18.0 °F 1.7 °F 3.0 °F 52% 30.30 in 10.0 mi South 19.6 mph 32.2 mph N/A   Overcast
10:53 AM 19.0 °F 5.0 °F 3.9 °F 52% 30.27 in 10.0 mi South 15.0 mph - N/A   Overcast
11:53 AM 21.0 °F 7.6 °F 5.0 °F 50% 30.22 in 10.0 mi South 15.0 mph 28.8 mph N/A   Overcast
12:53 PM 23.0 °F 10.1 °F 6.1 °F 48% 30.17 in 10.0 mi South 15.0 mph 27.6 mph N/A   Overcast
1:53 PM 25.0 °F 11.3 °F 7.0 °F 46% 30.13 in 10.0 mi South 18.4 mph 32.2 mph N/A   Overcast
2:53 PM 26.1 °F 12.3 °F 8.1 °F 47% 30.12 in 10.0 mi SSW 19.6 mph 28.8 mph N/A   Overcast
5:53 PM 26.1 °F 14.5 °F 14.0 °F 60% 30.14 in 10.0 mi SSW 13.8 mph 23.0 mph N/A   Overcast
6:53 PM 26.1 °F 15.0 °F 15.1 °F 63% 30.14 in 10.0 mi SSW 12.7 mph - N/A   Overcast
7:53 PM 26.1 °F 15.6 °F 16.0 °F 66% 30.13 in 9.0 mi SSW 11.5 mph - 0.00 in Snow Light Snow
8:53 PM 27.0 °F 18.0 °F 17.1 °F 66% 30.15 in 9.0 mi SW 9.2 mph - 0.00 in   Overcast
10:53 PM 27.0 °F 19.5 °F 18.0 °F 69% 30.15 in 10.0 mi SSW 6.9 mph - 0.00 in   Overcast
11:53 PM 27.0 °F 18.0 °F 19.9 °F 75% 30.14 in 5.0 mi SSW 9.2 mph - 0.00 in Snow Light Snow